Date String (YYYY-MM-DD hh:mm:ss) UTC,Instrument flags,Ambient pressure (hPa),Sample flow (lpm),Bypass flow (lpm),Sample temperature (°C),Ambient temperature (°C),ASC tube jacket temperature (°C),LED temperature (°C),Box temperature (°C),Sample RH (%),Span deviation,Mass concentration (μg/m³),Mass concentration (μg/m³),Mass concentration (μg/m³)
DateTimeUTC,F1_M11,P_M11,Q1_M11,Q2_M11,T1_M11,T2_M11,T3_M11,T4_M11,T5_M11,U1_M11,ZSPAN_M11,X2_M11,X0_M11,X1_M11
2023-03-04 12:00:00,,0820.7,5.03,0.00,22.3,22.7,00.0,30.9,24.2,15.7,-000.6,0009.88,0011.92,0009.66
2023-03-04 12:01:00,,0820.7,5.03,0.00,22.3,22.7,00.0,30.9,24.3,15.7,-000.6,0009.86,0011.86,0009.65
2023-03-04 12:02:00,,0820.7,4.99,0.00,22.4,22.2,00.0,31.0,24.2,15.7,-000.7,0009.85,0011.81,0009.66
2023-03-04 12:03:00,,0820.6,5.03,0.00,22.4,21.8,00.0,31.0,24.1,15.7,-000.6,0009.86,0011.79,0009.69
2023-03-04 12:04:00,,0820.6,5.01,0.00,22.3,21.5,00.0,31.0,24.0,15.7,-000.8,0009.90,0011.87,0009.71
2023-03-04 12:05:00,,0820.6,5.00,0.00,22.3,21.1,00.0,31.0,23.9,15.7,-000.6,0009.92,0011.93,0009.72
2023-03-04 12:06:00,,0820.7,5.00,0.00,22.2,20.8,00.0,31.0,23.8,15.8,-000.6,0009.94,0011.76,0009.73
2023-03-04 12:07:00,,0820.7,5.00,0.00,22.2,20.6,00.0,31.0,23.7,15.8,-000.6,0009.96,0011.77,0009.75
2023-03-04 12:08:00,,0820.7,5.00,0.00,22.1,20.5,00.0,31.0,23.7,15.9,-000.7,0009.95,0011.75,0009.75
2023-03-04 12:09:00,,0820.8,4.99,0.00,22.1,20.3,00.0,31.0,23.7,15.9,-000.6,0010.00,0011.77,0009.79
2023-03-04 12:10:00,,0820.8,5.00,0.00,22.1,20.3,00.0,30.9,23.7,16.0,-000.6,0010.03,0011.76,0009.82
2023-03-04 12:11:00,,0820.9,5.01,0.00,22.0,20.2,00.0,30.9,23.7,16.0,-000.4,0010.08,0011.79,0009.87
2023-03-04 12:12:00,,0820.9,5.01,0.00,22.0,20.2,00.0,30.9,23.7,16.1,-000.5,0010.10,0011.81,0009.89
2023-03-04 12:13:00,,0820.9,5.00,0.00,22.0,20.2,00.0,30.9,23.6,16.1,-000.7,0010.12,0011.86,0009.90
2023-03-04 12:14:00,,0820.9,5.01,0.00,22.0,20.2,00.0,30.9,23.6,16.1,-001.2,0010.11,0011.87,0009.90
2023-03-04 12:15:00,,0820.9,5.00,0.00,22.0,20.2,00.0,30.9,23.6,16.1,-001.0,0010.09,0011.82,0009.88
2023-03-04 12:16:00,,0820.9,4.99,0.00,22.0,20.2,00.0,30.9,23.6,16.1,-001.3,0010.07,0011.77,0009.86
2023-03-04 12:17:00,,0820.9,5.01,0.00,22.0,21.0,00.0,30.8,23.8,16.1,-001.5,0010.04,0011.75,0009.83
2023-03-04 12:18:00,,0820.9,4.99,0.00,22.1,22.2,00.0,30.8,24.1,16.0,-001.5,0009.98,0011.68,0009.77
2023-03-04 12:19:00,,0820.9,5.00,0.00,22.3,22.9,00.0,30.9,24.3,15.9,-001.5,0009.93,0011.66,0009.73
2023-03-04 12:20:00,,0820.9,4.98,0.00,22.3,22.5,00.0,30.9,24.2,15.8,-001.6,0009.88,0011.62,0009.68
2023-03-04 12:21:00,,0820.9,4.98,0.00,22.3,22.0,00.0,30.9,24.1,15.8,-001.8,0009.83,0011.60,0009.63
2023-03-04 12:22:00,,0820.9,4.99,0.00,22.3,21.6,00.0,31.0,24.1,15.8,-001.9,0009.75,0011.54,0009.57
2023-03-04 12:23:00,,0820.9,5.02,0.00,22.3,21.3,00.0,31.0,24.0,15.8,-002.1,0009.70,0011.49,0009.51
2023-03-04 12:24:00,,0821.0,5.01,0.00,22.3,21.1,00.0,31.0,23.9,15.8,-002.0,0009.64,0011.41,0009.45
2023-03-04 12:25:00,,0821.0,5.00,0.00,22.2,20.9,00.0,31.0,23.9,15.8,-001.6,0009.61,0011.38,0009.41
2023-03-04 12:26:00,,0821.0,5.00,0.00,22.2,20.8,00.0,31.0,23.9,15.9,-001.6,0009.58,0011.39,0009.39
2023-03-04 12:27:00,,0820.9,4.99,0.00,22.2,20.7,00.0,31.0,23.9,15.9,-001.6,0009.56,0011.35,0009.37
2023-03-04 12:28:00,,0820.9,4.99,0.00,22.2,20.6,00.0,31.0,23.8,15.9,-001.4,0009.57,0011.37,0009.37
2023-03-04 12:29:00,,0820.9,4.99,0.00,22.2,20.5,00.0,31.0,23.8,16.0,-001.3,0009.57,0011.38,0009.37
2023-03-04 12:30:00,,0820.9,5.01,0.00,22.1,20.4,00.0,31.0,23.8,16.0,-001.2,0009.56,0011.32,0009.38
2023-03-04 12:31:00,,0820.9,5.01,0.00,22.1,20.4,00.0,30.9,23.7,16.0,-001.1,0009.56,0011.31,0009.38
2023-03-04 12:32:00,,0820.9,5.00,0.00,22.1,20.4,00.0,30.9,23.7,16.0,-001.1,0009.53,0011.26,0009.35
2023-03-04 12:33:00,,0821.0,5.01,0.00,22.1,21.2,00.0,30.9,23.9,16.0,-001.0,0009.53,0011.31,0009.32
2023-03-04 12:34:00,,0821.0,5.02,0.00,22.2,22.3,00.0,30.9,24.2,15.9,-001.0,0009.51,0011.31,0009.29
2023-03-04 12:35:00,,0821.0,5.01,0.00,22.4,23.0,00.0,31.0,24.4,15.8,-000.9,0009.48,0011.30,0009.26
2023-03-04 12:36:00,,0821.0,4.99,0.00,22.4,22.6,00.0,31.0,24.3,15.8,-000.8,0009.44,0011.26,0009.23
2023-03-04 12:37:00,,0821.0,5.00,0.00,22.4,22.0,00.0,31.0,24.2,15.8,-000.8,0009.44,0011.22,0009.23
2023-03-04 12:38:00,,0820.9,5.00,0.00,22.4,21.6,00.0,31.0,24.1,15.8,-000.7,0009.47,0011.28,0009.26
2023-03-04 12:39:00,,0820.9,5.00,0.00,22.4,21.3,00.0,31.0,24.1,15.8,-000.9,0009.50,0011.30,0009.29
2023-03-04 12:40:00,,0820.9,5.00,0.00,22.3,21.1,00.0,31.0,24.0,15.8,-001.1,0009.50,0011.30,0009.30
2023-03-04 12:41:00,,0820.9,5.00,0.00,22.3,20.9,00.0,31.0,24.0,15.8,-001.4,0009.47,0011.31,0009.25
2023-03-04 12:42:00,,0820.9,5.00,0.00,22.3,20.8,00.0,31.0,24.0,15.7,-001.5,0009.41,0011.27,0009.20
2023-03-04 12:43:00,,0821.0,5.01,0.00,22.3,20.7,00.0,31.0,23.9,15.7,-001.3,0009.39,0011.30,0009.17
2023-03-04 12:44:00,,0821.0,5.01,0.00,22.3,20.6,00.0,31.0,23.9,15.7,-001.2,0009.38,0011.27,0009.17
2023-03-04 12:45:00,,0821.1,5.00,0.00,22.2,20.6,00.0,31.0,23.9,15.7,-001.2,0009.39,0011.29,0009.16
2023-03-04 12:46:00,,0821.0,4.99,0.00,22.2,20.5,00.0,31.0,23.8,15.8,-001.3,0009.38,0011.30,0009.15
2023-03-04 12:47:00,,0821.1,5.00,0.00,22.2,20.4,00.0,31.0,23.8,15.8,-001.5,0009.39,0011.33,0009.15
2023-03-04 12:48:00,,0821.1,4.98,0.00,22.2,20.3,00.0,31.0,23.8,15.8,-001.6,0009.35,0011.34,0009.11
2023-03-04 12:49:00,,0821.0,4.99,0.00,22.1,20.2,00.0,31.0,23.7,15.8,-001.7,0009.28,0011.33,0009.05
2023-03-04 12:50:00,,0821.0,5.00,0.00,22.1,20.4,00.0,31.0,23.8,15.8,-001.4,0009.22,0011.39,0008.98
2023-03-04 12:51:00,,0821.1,4.98,0.00,22.2,21.6,00.0,30.9,24.0,15.8,-001.2,0009.19,0011.35,0008.95
2023-03-04 12:52:00,,0821.1,5.02,0.00,22.3,22.7,00.0,31.0,24.3,15.7,-000.9,0009.18,0011.32,0008.95
2023-03-04 12:53:00,,0821.1,4.99,0.00,22.4,22.9,00.0,31.0,24.4,15.6,-001.0,0009.22,0011.35,0008.98
2023-03-04 12:54:00,,0821.1,5.03,0.00,22.4,22.4,00.0,31.0,24.3,15.6,-001.1,0009.27,0011.38,0009.04
2023-03-04 12:55:00,,0821.1,4.96,0.00,22.4,21.8,00.0,31.0,24.2,15.6,-001.1,0009.29,0011.39,0009.07
2023-03-04 12:56:00,,0821.2,5.00,0.00,22.4,21.5,00.0,31.1,24.1,15.6,-001.1,0009.31,0011.41,0009.11
2023-03-04 12:57:00,,0821.2,4.99,0.00,22.4,21.2,00.0,31.1,24.0,15.6,-001.0,0009.31,0011.42,0009.11
2023-03-04 12:58:00,,0821.1,5.00,0.00,22.4,21.1,00.0,31.1,24.0,15.6,-000.8,0009.29,0011.37,0009.10
2023-03-04 12:59:00,,0821.2,5.01,0.00,22.3,20.9,00.0,31.1,24.0,15.6,-000.8,0009.27,0011.34,0009.08
